When you browse on this site, cookies collect data to enhance your experience and personalize the content and advertising you see.
Visit our Privacy Policy to learn more. By continuing to use the site, you agree to this use of cookies and data.

Stündliche Wetter Luanda

Heute, 9 Juli, Donnerstag

Zeit Temperatur Niederschläge Wind Luftdruck Luftfeuchtigkeit
00:00 +20°C° 0 mm 3 m/S 754 mmHg 93%
01:00 +20°C° 0 mm 2 m/S 754 mmHg 94%
02:00 +20°C° 0 mm 2 m/S 753 mmHg 94%
03:00 +19°C° 0 mm 2 m/S 753 mmHg 95%
04:00 +20°C° 0 mm 1 m/S 753 mmHg 95%
05:00 +20°C° 0 mm 1 m/S 753 mmHg 93%
06:00 +20°C° 0 mm 2 m/S 754 mmHg 92%
07:00 +20°C° 0 mm 2 m/S 754 mmHg 91%
08:00 +24°C° 0 mm 1 m/S 754 mmHg 78%
09:00 +26°C° 0 mm 1 m/S 754 mmHg 64%
10:00 +29°C° 0 mm 1 m/S 755 mmHg 51%
11:00 +30°C° 0 mm 2 m/S 754 mmHg 48%
12:00 +33°C° 0 mm 3 m/S 754 mmHg 44%
13:00 +34°C° 0 mm 5 m/S 753 mmHg 41%
14:00 +33°C° 0 mm 5 m/S 753 mmHg 46%
15:00 +32°C° 0 mm 6 m/S 752 mmHg 50%
16:00 +30°C° 0 mm 7 m/S 752 mmHg 55%
17:00 +28°C° 0 mm 6 m/S 752 mmHg 64%
18:00 +26°C° 0 mm 6 m/S 753 mmHg 73%
19:00 +23°C° 0 mm 6 m/S 753 mmHg 81%
20:00 +22°C° 0 mm 5 m/S 754 mmHg 85%
21:00 +22°C° 0 mm 5 m/S 754 mmHg 88%
22:00 +21°C° 0 mm 5 m/S 755 mmHg 91%
23:00 +21°C° 0 mm 4 m/S 755 mmHg 93%

Morgen, 10 Juli, Freitag

Zeit Temperatur Niederschläge Wind Luftdruck Luftfeuchtigkeit
00:00 +21°C° 0 mm 3 m/S 755 mmHg 94%
01:00 +20°C° 0 mm 3 m/S 755 mmHg 95%
02:00 +20°C° 0 mm 2 m/S 754 mmHg 95%
03:00 +20°C° 0 mm 2 m/S 754 mmHg 95%
04:00 +21°C° 0 mm 1 m/S 754 mmHg 95%
05:00 +21°C° 0 mm 1 m/S 754 mmHg 94%
06:00 +21°C° 0 mm 1 m/S 754 mmHg 94%
07:00 +21°C° 0 mm 1 m/S 755 mmHg 94%
08:00 +24°C° 0 mm 1 m/S 755 mmHg 81%
09:00 +26°C° 0 mm 1 m/S 755 mmHg 68%
10:00 +28°C° 0 mm 1 m/S 755 mmHg 56%
11:00 +30°C° 0 mm 2 m/S 755 mmHg 51%
12:00 +31°C° 0 mm 3 m/S 754 mmHg 47%
13:00 +33°C° 0 mm 5 m/S 754 mmHg 42%
14:00 +32°C° 0 mm 5 m/S 753 mmHg 47%
15:00 +30°C° 0 mm 6 m/S 753 mmHg 52%
16:00 +29°C° 0 mm 7 m/S 753 mmHg 57%
17:00 +27°C° 0 mm 7 m/S 753 mmHg 66%
18:00 +24°C° 0 mm 6 m/S 753 mmHg 76%
19:00 +22°C° 0 mm 6 m/S 754 mmHg 85%
20:00 +22°C° 0 mm 5 m/S 754 mmHg 88%
21:00 +21°C° 0 mm 5 m/S 755 mmHg 90%
22:00 +21°C° 0 mm 4 m/S 755 mmHg 93%
23:00 +20°C° 0 mm 4 m/S 755 mmHg 94%

übermorgen, 11 Juli, Samstag

Zeit Temperatur Niederschläge Wind Luftdruck Luftfeuchtigkeit
00:00 +19°C° 0 mm 3 m/S 754 mmHg 95%
01:00 +19°C° 0 mm 2 m/S 754 mmHg 96%
02:00 +19°C° 0 mm 2 m/S 754 mmHg 97%
03:00 +19°C° 0 mm 1 m/S 754 mmHg 97%
04:00 +19°C° 0 mm 1 m/S 754 mmHg 97%
05:00 +19°C° 0 mm 1 m/S 754 mmHg 97%
06:00 +20°C° 0 mm 1 m/S 754 mmHg 96%
07:00 +20°C° 0 mm 1 m/S 755 mmHg 96%
08:00 +22°C° 0 mm 1 m/S 755 mmHg 85%
09:00 +25°C° 0 mm 1 m/S 755 mmHg 74%
10:00 +27°C° 0 mm 1 m/S 756 mmHg 62%
11:00 +28°C° 0 mm 2 m/S 755 mmHg 58%
12:00 +29°C° 0 mm 2 m/S 755 mmHg 54%
13:00 +30°C° 0 mm 3 m/S 754 mmHg 50%
14:00 +29°C° 0 mm 4 m/S 753 mmHg 52%
15:00 +28°C° 0 mm 4 m/S 753 mmHg 55%
16:00 +27°C° 0 mm 5 m/S 752 mmHg 57%
17:00 +26°C° 0 mm 5 m/S 753 mmHg 65%
18:00 +23°C° 0 mm 5 m/S 753 mmHg 73%
19:00 +22°C° 0 mm 4 m/S 753 mmHg 81%
20:00 +21°C° 0 mm 4 m/S 754 mmHg 84%
21:00 +20°C° 0 mm 3 m/S 754 mmHg 88%
22:00 +19°C° 0 mm 2 m/S 755 mmHg 91%
23:00 +19°C° 0 mm 2 m/S 755 mmHg 92%

12 Juli, Sonntag

Zeit Temperatur Niederschläge Wind Luftdruck Luftfeuchtigkeit
00:00 +19°C° 0 mm 2 m/S 755 mmHg 93%
01:00 +18°C° 0 mm 2 m/S 755 mmHg 93%
02:00 +19°C° 0 mm 1 m/S 755 mmHg 94%
03:00 +19°C° 0 mm 1 m/S 755 mmHg 94%
04:00 +19°C° 0 mm 1 m/S 755 mmHg 94%
05:00 +19°C° 0 mm 1 m/S 755 mmHg 93%
06:00 +20°C° 0 mm 1 m/S 755 mmHg 91%
07:00 +19°C° 0 mm 2 m/S 756 mmHg 90%
08:00 +23°C° 0 mm 1 m/S 756 mmHg 79%
09:00 +25°C° 0 mm 1 m/S 756 mmHg 67%
10:00 +25°C° 0 mm 0 m/S 756 mmHg 56%
11:00 +28°C° 0 mm 2 m/S 756 mmHg 54%
12:00 +29°C° 0 mm 3 m/S 755 mmHg 51%
13:00 +30°C° 0 mm 4 m/S 754 mmHg 49%
14:00 +29°C° 0 mm 4 m/S 754 mmHg 52%
15:00 +28°C° 0 mm 5 m/S 753 mmHg 55%
16:00 +27°C° 0 mm 5 m/S 753 mmHg 58%
17:00 +25°C° 0 mm 5 m/S 753 mmHg 65%
18:00 +23°C° 0 mm 5 m/S 754 mmHg 72%
19:00 +22°C° 0 mm 5 m/S 754 mmHg 79%
20:00 +21°C° 0 mm 4 m/S 755 mmHg 82%
21:00 +21°C° 0 mm 3 m/S 755 mmHg 85%
22:00 +20°C° 0 mm 3 m/S 756 mmHg 88%
23:00 +20°C° 0 mm 2 m/S 756 mmHg 89%

13 Juli, Montag

Zeit Temperatur Niederschläge Wind Luftdruck Luftfeuchtigkeit
00:00 +20°C° 0 mm 2 m/S 756 mmHg 90%
01:00 +19°C° 0 mm 2 m/S 755 mmHg 91%
02:00 +21°C° 0.1 mm 1 m/S 755 mmHg 88%
03:00 +21°C° 0.1 mm 1 m/S 755 mmHg 85%
04:00 +22°C° 0.1 mm 1 m/S 755 mmHg 83%
05:00 +22°C° 0 mm 1 m/S 755 mmHg 83%
06:00 +21°C° 0 mm 2 m/S 755 mmHg 83%
07:00 +20°C° 0 mm 2 m/S 755 mmHg 84%
08:00 +23°C° 0 mm 1 m/S 755 mmHg 74%
09:00 +25°C° 0 mm 1 m/S 755 mmHg 64%
10:00 +28°C° 0 mm 1 m/S 755 mmHg 54%
11:00 +29°C° 0 mm 2 m/S 754 mmHg 51%
12:00 +30°C° 0 mm 3 m/S 753 mmHg 48%
13:00 +32°C° 0 mm 4 m/S 753 mmHg 44%
14:00 +30°C° 0 mm 5 m/S 752 mmHg 51%
15:00 +28°C° 0 mm 6 m/S 752 mmHg 57%
16:00 +27°C° 0 mm 7 m/S 751 mmHg 63%
17:00 +26°C° 0 mm 6 m/S 752 mmHg 69%
18:00 +23°C° 0 mm 5 m/S 752 mmHg 76%
19:00 +22°C° 0 mm 4 m/S 753 mmHg 83%
20:00 +22°C° 0 mm 3 m/S 753 mmHg 86%
21:00 +21°C° 0 mm 3 m/S 754 mmHg 88%
22:00 +21°C° 0 mm 2 m/S 755 mmHg 91%
23:00 +21°C° 0 mm 2 m/S 755 mmHg 89%

14 Juli, Dienstag

Zeit Temperatur Niederschläge Wind Luftdruck Luftfeuchtigkeit
00:00 +22°C° 0 mm 1 m/S 755 mmHg 88%
01:00 +22°C° 0 mm 1 m/S 755 mmHg 87%
02:00 +22°C° 0 mm 1 m/S 755 mmHg 85%
03:00 +23°C° 0 mm 1 m/S 754 mmHg 83%
04:00 +23°C° 0 mm 1 m/S 754 mmHg 81%
05:00 +23°C° 0 mm 1 m/S 754 mmHg 80%
06:00 +23°C° 0 mm 1 m/S 755 mmHg 79%
07:00 +23°C° 0 mm 1 m/S 755 mmHg 78%
08:00 +25°C° 0 mm 1 m/S 755 mmHg 72%
09:00 +26°C° 0 mm 1 m/S 755 mmHg 65%
10:00 +27°C° 0 mm 1 m/S 755 mmHg 59%
11:00 +28°C° 0 mm 1 m/S 755 mmHg 56%
12:00 +29°C° 0 mm 2 m/S 754 mmHg 52%
13:00 +31°C° 0 mm 3 m/S 753 mmHg 49%
14:00 +30°C° 0 mm 4 m/S 753 mmHg 52%
15:00 +29°C° 0 mm 4 m/S 752 mmHg 55%
16:00 +28°C° 0 mm 5 m/S 751 mmHg 59%
17:00 +26°C° 0 mm 5 m/S 752 mmHg 66%
18:00 +25°C° 0 mm 5 m/S 752 mmHg 74%
19:00 +22°C° 0 mm 5 m/S 753 mmHg 81%
20:00 +22°C° 0 mm 4 m/S 753 mmHg 84%
21:00 +21°C° 0 mm 3 m/S 754 mmHg 87%
22:00 +21°C° 0 mm 2 m/S 755 mmHg 90%
23:00 +21°C° 0 mm 2 m/S 755 mmHg 90%
Mehr zeigen